Lid_Strength_Index
3 6 9 7 10 11 14 12 12 10 10 9 8 8 9 8 10 12 3 1 0 0 -0 -0 -0 -1 -1 -1 -1 -1 -1 -2 -1 -1 -2 -2 -2 -2 -2 -2 -2 -2 -2 -2 -2 -2 -1 -1 -1
4 7 9 10 12 15 14 12 11 10 8 8 7 7 8 9 5 5 3 1 0 -0 -0 -0 0 -1 -1 -1 -1 -1 -1 -2 -1 -1 -1 -2 -2 -2 -2 -2 -2 -2 -2 -2 -2 -2 -1 -1 -1
7 8 11 11 13 15 14 12 11 10 9 8 9 6 7 8 4 4 2 0 -0 -0 -0 -0 0 -1 -1 -1 -1 -1 -1 -2 -2 -1 -2 -2 -2 -2 -2 -2 -2 -2 -2 -2 -2 -1 -1 -1 -0
10 10 12 13 13 14 14 14 13 12 10 9 10 9 5 3 3 3 1 0 0 0 -0 0 -0 -1 -1 -1 -1 -1 -1 -2 -2 -2 -2 -2 -2 -2 -2 -2 -2 -2 -2 -2 -2 -2 -1 -1 -1
9 11 14 13 14 15 13 12 12 12 12 11 10 9 7 3 2 2 1 0 1 0 -0 0 0 -1 -1 -1 -1 -1 -1 -1 -2 -2 -2 -2 -2 -2 -2 -2 -2 -2 -2 -2 -2 -2 -1 -1 -1
10 13 15 14 16 14 12 11 12 11 10 8 11 8 7 2 3 2 2 1 0 0 -0 -0 2 1 -0 -1 -1 -1 -1 -1 -2 -2 -2 -2 -2 -2 -2 -2 -2 -2 -2 -1 -1 -1 -1 -1 -1
11 12 15 15 16 14 11 10 12 12 11 11 7 9 6 4 3 2 3 1 0 -0 -0 0 0 1 2 1 0 -0 -1 -1 -1 -1 -1 -1 -1 -1 -2 -2 -2 -2 -2 -2 -1 -1 -1 -1 -1
10 11 13 13 15 16 11 10 10 12 12 10 9 11 8 11 8 5 2 2 0 -0 -0 0 0 0 0 -0 1 1 0 -0 -0 -0 -0 0 0 -0 -0 -0 -1 -2 -2 -1 -1 -1 -1 -1 -1
7 12 14 14 13 13 10 11 9 9 11 11 11 12 11 10 11 11 11 11 10 8 2 0 -0 0 -0 -1 1 2 1 1 1 1 2 1 0 0 1 1 -0 -2 -1 -1 -1 -1 -1 -1 -1
10 12 13 11 11 12 10 12 12 12 13 12 12 10 10 10 12 12 12 12 12 11 9 9 1 0 -0 -0 -0 -1 -0 -0 0 0 0 -0 0 0 -0 1 1 -0 -1 -1 -1 -1 -1 -0 2
11 13 10 11 11 10 10 12 11 13 14 13 13 12 11 11 11 12 12 11 12 11 10 9 8 6 0 -0 -0 -0 -1 -0 -1 0 0 0 -0 1 1 1 1 1 2 0 -0 0 1 2 4
11 9 9 9 10 10 11 10 13 13 13 12 12 12 12 13 12 12 11 12 12 11 11 9 9 8 7 -0 -0 -0 -0 0 -0 -0 -0 0 2 1 1 1 1 1 1 1 1 1 2 4 6
10 10 10 9 10 10 9 11 12 13 12 12 13 13 14 13 13 13 12 12 12 12 11 10 9 9 8 6 1 1 0 0 0 -0 -1 0 1 1 1 1 1 2 1 1 1 1 2 5 7
11 9 9 10 10 11 13 12 11 12 12 13 13 14 14 14 14 13 13 13 13 12 11 10 10 10 9 8 7 3 -0 0 0 1 0 -0 0 1 1 1 1 1 2 2 1 1 4 6 7
11 13 13 14 14 13 12 15 15 13 14 15 15 15 15 14 14 14 14 14 13 13 12 11 10 10 10 9 8 7 5 0 0 0 1 1 1 1 1 0 1 1 1 2 2 2 5 6 8
13 14 17 15 15 12 12 18 15 13 15 16 15 15 15 15 15 14 14 14 13 13 13 12 11 10 10 10 9 8 7 4 0 0 0 0 0 1 1 1 1 1 2 1 1 2 5 6 8
15 18 17 16 14 14 13 17 14 13 14 16 16 15 15 15 14 14 14 14 14 14 14 13 12 12 11 10 9 9 8 7 6 3 0 0 0 0 1 1 1 2 2 2 2 5 5 7 8
18 18 17 18 16 13 15 16 15 14 15 15 15 15 15 15 15 14 14 14 15 15 14 14 13 13 12 11 10 10 9 9 6 5 4 1 0 0 1 1 1 2 2 3 4 4 6 6 8
17 18 20 18 15 13 14 15 14 13 14 14 15 15 15 14 13 14 14 14 15 14 15 15 14 13 13 13 12 12 11 9 9 7 7 7 3 0 1 1 1 2 2 3 3 4 6 9 8
18 19 19 17 15 13 14 15 14 14 14 14 14 14 14 14 13 12 12 12 13 14 14 15 14 14 13 12 12 12 11 10 9 9 8 7 7 6 1 1 1 2 2 3 4 5 7 8 8
18 19 19 19 16 14 15 16 15 15 14 14 14 13 13 14 14 13 13 13 12 13 13 13 14 14 14 13 12 12 11 11 11 10 10 9 7 7 6 1 1 1 2 3 4 4 5 7 9
18 16 17 17 19 22 15 22 17 16 16 15 15 16 15 14 13 13 13 13 13 12 12 12 11 12 11 12 13 13 13 13 11 11 10 10 9 8 7 5 1 1 2 2 3 4 4 5 9
17 16 16 16 18 20 19 24 19 16 18 17 16 16 15 15 14 13 13 13 12 12 12 12 12 11 11 11 11 12 12 13 12 11 11 10 10 9 8 6 5 1 1 2 2 3 5 5 5
15 15 16 16 18 26 21 22 22 19 18 17 17 16 15 15 14 14 13 13 13 13 12 12 12 12 11 11 12 12 11 11 12 13 12 11 11 10 9 9 8 6 4 2 2 3 5 5 5
16 20 30 28 29 27 20 23 21 18 17 17 17 17 16 15 15 14 14 14 14 13 13 12 12 12 12 12 12 12 12 11 11 11 12 12 12 11 11 10 9 9 6 4 4 4 4 5 6
18 21 28 32 29 26 20 26 21 15 16 16 16 16 15 15 15 15 14 14 14 14 13 13 13 13 12 12 12 12 12 12 11 11 11 11 11 11 11 11 10 9 8 6 5 6 6 6 6
19 22 18 29 35 30 23 19 16 15 17 17 17 17 16 16 15 15 14 14 14 14 13 13 13 13 12 12 12 12 12 12 12 12 12 12 11 10 11 11 11 10 9 7 6 7 7 7 8
17 17 25 29 34 36 27 25 22 17 16 17 19 18 17 16 15 14 14 14 14 14 14 13 13 13 13 12 12 12 12 12 12 12 12 12 12 11 10 11 11 11 10 9 7 7 7 8 8
20 20 21 25 26 33 33 26 21 17 16 18 18 16 16 15 15 14 14 13 14 13 13 14 13 13 13 12 12 12 12 12 12 12 12 13 12 12 11 10 10 12 11 10 9 8 7 8 8
18 20 22 29 29 26 26 26 16 17 16 16 16 15 14 14 14 14 14 14 14 13 13 13 13 12 11 11 11 11 11 11 11 12 12 12 13 12 12 11 11 11 11 11 10 9 8 8 8